sat.trackr.live / text

‹ back to catalog

STARLINK-3967

NORAD 52636 · 2022-052AQ

PAYLOAD ACTIVE UNKNOWN

§ Identity

Operator
Country
US
Launch date
2022-05-14
Launch site
AFETR
Launch vehicle
Mass (kg)
RCS (m²)

Purposes: comms

External: N2YO · Heavens-Above · Gunter

§ Orbital elements

Epoch: 2026-09-20T03:53:11.895072Z

Period
93.79 min
Inclination
53.1596°
Eccentricity
0.0001221
Mean motion
15.35400555 rev/d
Perigee alt
458.9 km
Apogee alt
460.6 km
Semi-major
6,837.9 km
B*
2.0669e-5
RAAN
104.6751°
Arg perigee
85.3650°
Mean anomaly
274.7493°
Rev number
24,050

§ Raw data

STARLINK-39671 52636U 22052AQ  26263.16194323  .00000341  00000+0  20669-4 0  99952 52636  53.1596 104.6751 0001221  85.3650 274.7493 15.35400555240500

JSON: /api/v1/satellites/52636 · /tle

For live sub-satellite position, see the globe view (requires WebGL).

§ Visibility from observer

Set your observer location to see the next 7 days of passes ≥ 10°. The values pass through the URL so the page stays shareable.

No JS? Fill the form by hand. The geolocation button needs JavaScript.